Theta_e
313 313 312 312 313 312 313 313 314 314 314 315 314 312 312 312 311 313 314 311 312 313 313 314 314 315 315 315 315 314 314 314 314 314 314 315 315 316 316 316 317 316 318 320 318 316 315 315 316 317 319 323 326 327 327 328 329 331 332 332 333 332 332 332 332 333 333 332 332 331 331 332 332 332 332 331 331 332 332 332 332 331 331 332 331 331
312 313 312 313 313 313 312 313 313 313 313 314 314 313 312 312 311 313 314 311 312 312 313 314 314 315 315 315 315 315 315 315 315 314 314 314 315 316 316 317 318 318 322 321 317 315 315 315 314 312 313 316 320 323 325 326 327 328 330 331 331 331 331 330 331 331 332 331 331 331 331 331 330 330 331 330 330 331 332 332 331 331 331 332 333 332
313 313 312 312 313 313 313 313 313 313 314 313 313 313 311 312 312 312 313 312 311 311 313 315 314 314 315 315 315 315 315 315 315 316 315 315 316 316 316 318 319 319 322 320 317 316 315 315 314 311 310 311 313 318 321 324 325 327 328 329 330 330 330 330 330 330 331 330 330 331 331 331 330 330 330 330 330 330 331 331 332 332 332 332 333 332
313 312 313 313 313 313 312 313 313 313 313 313 313 311 311 314 312 310 313 312 312 311 312 315 314 315 315 315 315 315 316 316 316 316 316 317 318 317 318 320 320 319 320 319 317 316 314 315 315 312 310 310 310 312 316 319 323 325 326 327 328 329 329 329 329 329 329 330 330 330 330 330 329 329 329 329 329 329 329 329 329 329 330 330 331 331
313 311 310 312 312 313 312 312 313 312 312 314 316 313 313 316 313 312 314 312 312 312 312 313 312 312 314 314 315 315 315 316 316 315 314 315 315 316 316 317 317 316 316 317 316 316 315 315 314 313 312 310 310 310 312 314 318 321 323 325 327 327 328 328 328 328 328 328 329 328 328 328 328 328 328 327 327 328 327 327 328 327 328 328 329 331
313 308 308 312 312 313 313 313 313 313 311 312 316 316 314 315 314 314 315 313 312 312 313 314 310 309 313 314 314 315 314 313 314 313 313 314 314 314 314 314 314 314 314 314 314 315 315 314 313 313 312 311 310 309 309 310 312 315 319 322 324 325 326 326 327 327 327 327 327 327 327 327 327 326 326 326 326 327 326 326 326 327 327 328 329 330
311 306 309 314 313 315 315 313 314 315 310 310 316 318 314 314 316 316 315 313 311 311 313 313 310 308 311 314 315 315 313 313 313 312 312 313 314 315 315 316 317 316 315 315 314 313 313 312 312 312 313 313 312 310 309 309 309 311 314 318 321 323 324 324 325 325 325 325 326 326 326 326 326 326 326 326 326 326 326 326 326 326 326 327 328 329
310 308 311 315 314 315 315 313 315 315 311 313 318 319 315 314 317 317 316 314 312 313 313 313 314 311 309 313 315 315 313 313 313 313 313 314 315 316 316 317 317 317 316 316 316 313 311 311 311 312 315 315 314 312 310 308 307 309 312 314 316 320 322 323 324 324 324 324 325 325 325 324 324 325 326 326 325 325 325 325 325 325 325 326 326 327
312 312 313 315 315 315 315 315 317 315 312 316 318 317 316 316 318 318 316 314 313 313 312 313 315 311 309 312 314 314 312 312 313 314 315 315 317 316 316 316 315 315 314 313 313 313 312 312 313 315 316 315 314 312 311 308 306 309 311 311 313 318 321 322 322 323 323 323 324 324 324 324 323 324 325 325 325 324 324 324 324 324 324 325 325 325
312 311 312 314 315 316 314 313 317 318 315 315 314 316 316 317 318 318 316 314 313 313 312 314 314 311 309 310 312 313 311 312 313 314 316 316 316 316 315 315 314 314 314 312 311 314 316 315 315 315 315 314 313 312 312 310 309 310 312 313 316 319 321 321 321 321 323 323 323 324 323 323 323 323 323 323 324 323 323 323 323 323 323 323 323 323
310 308 311 314 313 312 311 310 313 317 315 314 315 316 316 316 315 315 315 313 312 313 313 314 314 312 309 309 312 314 311 312 314 314 316 316 315 315 314 314 313 313 315 314 313 315 316 315 315 315 315 315 313 312 314 314 313 313 316 317 319 321 321 321 321 321 322 322 322 323 323 323 323 323 323 322 322 322 321 321 321 321 322 322 322 321
312 310 311 312 309 310 312 311 312 313 314 316 317 315 314 314 313 313 312 312 313 314 311 311 313 314 310 309 311 313 311 312 314 314 315 315 315 314 313 313 312 313 314 315 315 315 315 315 315 316 316 316 315 316 317 317 317 318 319 320 320 320 319 319 319 320 321 321 321 322 322 322 322 322 322 322 322 321 321 320 320 320 321 321 320 319
315 313 312 312 309 310 314 314 312 312 314 316 315 312 313 313 314 314 313 313 314 312 309 309 312 314 311 310 312 313 311 311 313 315 315 315 314 314 313 313 313 313 315 316 316 316 316 317 317 317 317 317 317 317 317 317 318 319 320 320 318 318 318 318 319 320 320 320 320 321 321 321 321 321 321 321 321 321 321 321 320 319 320 319 319 318
315 314 313 314 311 310 314 314 312 312 312 314 313 312 312 313 315 316 314 314 313 311 308 308 311 312 310 311 313 313 312 312 312 314 314 313 313 313 312 312 313 314 315 316 317 317 317 317 318 317 317 317 317 317 317 317 317 317 319 319 318 317 318 318 318 319 320 320 320 320 320 320 320 320 320 320 320 320 321 320 320 319 319 319 319 319
315 315 313 314 313 312 314 315 315 315 313 314 316 314 312 312 314 315 314 314 314 311 308 308 311 311 309 311 312 312 311 311 311 311 312 311 312 312 311 311 313 314 314 315 316 316 316 317 316 316 316 316 315 315 315 315 315 316 317 318 317 315 316 316 316 317 318 318 318 317 317 318 318 318 318 318 318 319 319 319 319 318 318 318 318 318
315 314 313 313 314 313 314 316 317 316 314 315 316 315 314 313 313 312 312 312 312 312 310 309 310 311 311 312 312 312 311 310 311 311 311 311 312 312 312 312 314 314 314 315 315 314 314 315 315 315 315 314 314 313 313 313 314 314 315 315 314 313 313 314 314 314 314 315 314 313 313 313 314 314 314 315 315 315 315 315 315 315 316 316 316 315
314 315 313 312 312 311 312 315 315 315 316 314 313 314 313 314 313 311 310 309 309 311 312 312 311 311 311 313 313 312 311 310 311 310 310 311 312 312 313 315 315 315 315 315 315 314 314 314 314 314 313 313 313 312 311 311 312 312 312 312 312 311 311 311 311 311 311 311 311 311 311 311 311 311 311 312 312 312 311 311 312 312 313 313 313 312
314 314 313 314 314 311 310 313 314 314 315 313 312 314 312 312 312 310 310 310 310 311 311 311 312 309 308 311 312 312 311 311 311 310 310 312 312 312 314 317 316 315 315 315 314 313 313 313 313 312 312 311 311 310 309 310 310 310 311 311 310 310 310 310 310 310 310 310 310 310 310 310 310 310 310 310 310 310 310 310 310 310 311 311 311 310
314 314 314 313 314 312 311 314 313 312 314 312 312 315 312 312 312 310 311 312 312 312 311 310 310 309 309 310 311 312 312 312 312 311 311 312 312 312 314 317 316 315 315 314 314 313 313 313 312 311 310 309 308 308 307 308 308 309 309 309 309 309 309 309 309 309 309 310 310 310 309 309 309 309 309 309 309 309 309 309 309 309 309 309 309 309
315 314 315 313 313 313 311 312 313 313 313 310 311 313 312 313 312 311 312 311 311 312 311 311 310 309 311 311 311 312 312 313 312 312 312 312 312 313 315 317 316 315 315 314 314 313 313 312 311 310 310 309 308 308 307 307 307 307 307 308 308 308 308 308 308 309 308 308 308 308 308 308 308 308 309 309 309 309 308 308 309 308 308 308 308 308
314 313 315 313 312 313 312 313 315 315 313 310 311 311 311 312 311 311 312 311 311 311 310 312 311 309 311 312 312 312 312 313 313 313 314 314 313 313 315 317 316 315 315 315 314 313 312 311 310 309 309 308 308 308 307 307 306 306 306 307 307 307 307 307 308 308 308 308 308 307 307 308 308 308 308 308 308 308 308 308 308 307 307 307 307 307
313 311 315 314 313 314 314 314 313 315 315 313 312 312 312 313 312 313 314 312 311 310 310 311 311 310 312 313 313 311 311 312 314 315 317 315 314 315 316 316 316 315 315 315 313 312 311 311 309 309 309 308 308 308 307 307 306 306 306 306 306 306 306 307 307 307 307 307 307 307 307 307 307 307 307 307 307 307 307 307 306 306 306 306 306 306
317 316 317 316 314 314 314 312 310 311 314 314 313 313 313 313 313 313 315 313 311 309 309 310 311 311 313 312 311 311 310 310 310 313 316 316 314 315 317 317 317 316 315 313 312 311 311 310 309 308 308 308 308 307 307 306 305 305 304 304 305 305 306 306 307 306 307 307 307 306 306 306 306 306 306 306 306 306 305 305 304 304 305 305 304 305
316 317 318 315 314 313 312 312 310 310 313 314 313 313 313 314 315 313 312 313 312 311 310 310 312 312 314 312 309 309 309 308 307 308 312 315 314 315 318 317 317 316 313 311 310 310 310 309 309 308 308 307 307 306 306 305 304 304 303 303 304 304 305 305 305 305 305 306 305 305 305 306 306 305 305 304 303 303 303 302 302 301 301 301 301 301
313 315 317 316 315 315 314 314 313 313 313 313 313 314 313 315 316 313 311 311 312 314 313 312 311 312 314 312 309 308 308 308 307 306 309 313 315 315 316 315 314 312 311 310 309 309 308 308 309 308 308 307 306 305 305 304 303 303 302 302 302 303 303 304 304 304 304 304 304 304 304 304 303 302 301 300 299 299 299 298 298 298 298 298 298 298
314 315 315 316 316 316 316 316 316 315 314 313 314 316 315 315 315 313 312 312 313 315 316 313 311 311 312 310 309 309 308 308 308 306 306 310 314 315 314 313 312 311 310 310 309 309 308 308 308 307 306 305 305 304 304 303 302 301 301 301 301 301 301 302 302 303 302 302 302 301 300 299 298 298 297 297 297 297 296 296 296 296 296 296 296 296
316 316 313 314 315 315 315 316 316 317 316 316 316 317 316 316 315 314 314 314 313 315 316 314 313 312 311 310 309 310 309 308 309 308 306 309 314 314 313 312 311 311 311 310 309 308 307 307 306 306 305 304 303 303 302 302 301 301 300 300 300 300 300 300 300 301 300 300 299 298 297 297 296 296 296 296 296 295 296 296 295 295 295 295 295 295
316 315 313 315 315 314 314 316 318 319 319 318 318 318 317 317 316 316 315 315 314 315 314 315 315 315 313 311 311 311 310 309 310 309 307 309 313 313 313 312 311 311 310 309 308 307 306 305 305 305 304 303 302 301 301 300 300 300 299 299 299 299 299 298 298 298 298 297 297 296 296 296 295 295 295 295 295 295 295 294 294 294 294 294 294 294
313 313 314 316 316 316 317 319 320 319 318 318 318 318 318 317 317 316 315 315 315 316 314 314 316 316 314 313 311 311 312 311 311 310 308 310 313 313 313 312 311 310 309 308 308 307 306 305 304 304 303 302 301 301 300 300 299 299 298 298 297 297 297 297 297 297 296 296 295 295 295 295 295 294 294 294 294 294 294 294 294 294 294 294 294 294
313 312 314 315 315 316 318 320 320 318 318 319 318 319 319 318 316 315 315 315 315 315 314 314 315 316 315 314 312 313 316 314 312 312 311 312 314 313 312 311 310 310 309 308 308 307 306 304 304 303 302 301 301 300 300 300 299 298 297 297 297 296 296 296 296 295 295 295 294 294 294 294 294 294 293 294 294 293 293 293 293 293 293 293 293 293
312 313 315 315 314 315 316 319 320 319 319 319 318 320 321 319 317 316 315 315 315 315 315 315 316 316 316 314 314 317 318 314 312 311 310 312 314 313 312 311 310 310 309 309 308 307 305 304 303 302 302 301 300 300 299 299 298 297 297 296 296 296 295 295 295 295 294 294 294 293 293 293 293 293 293 293 293 293 293 293 293 293 292 292 292 292
312 313 315 314 313 314 315 319 319 318 316 316 318 321 321 320 318 317 316 315 315 315 315 317 317 316 315 315 316 317 316 313 312 312 311 312 313 312 311 310 310 310 309 309 307 306 304 302 302 302 301 300 300 299 299 298 297 297 296 295 295 295 295 294 294 294 293 293 293 293 293 293 293 293 293 293 293 292 292 292 291 291 291 291 291 291
311 312 314 314 314 314 316 317 317 315 313 313 315 317 319 318 317 316 316 315 315 315 315 316 316 315 315 315 315 316 316 314 313 313 312 313 313 311 310 310 310 310 310 308 306 304 303 302 301 301 300 299 299 298 297 297 297 296 295 295 294 294 294 293 293 293 293 292 293 293 293 293 293 292 292 292 291 291 290 290 290 290 290 290 290 290
312 312 313 313 313 314 316 316 315 314 313 313 313 314 316 316 316 316 316 315 315 315 314 314 314 314 315 314 313 314 315 314 313 312 313 313 313 312 311 310 311 311 310 307 304 302 302 301 300 299 298 298 297 296 296 296 296 295 295 294 293 293 293 292 292 292 292 292 292 292 292 292 291 291 290 290 290 290 289 289 289 289 289 289 289 289
313 312 312 312 312 313 313 314 313 314 314 312 312 313 313 314 314 316 317 315 314 314 314 314 314 314 314 313 312 313 312 312 314 314 314 313 313 313 312 311 313 312 309 306 303 302 301 300 299 298 297 296 295 295 295 295 294 294 294 293 292 292 292 291 291 291 291 291 290 291 291 290 289 289 289 289 289 289 289 289 289 289 289 289 289 289
313 312 311 312 312 312 311 312 314 315 314 312 313 313 313 314 314 315 317 315 314 315 314 314 314 313 314 313 313 315 316 316 317 318 316 314 315 314 312 313 314 312 308 305 302 301 301 299 298 297 296 295 295 294 294 294 293 293 293 292 291 291 291 291 290 290 290 289 289 289 288 288 288 288 288 288 288 289 289 288 288 288 288 288 288 288
312 312 311 312 313 313 312 313 313 314 314 314 313 313 313 313 313 314 315 314 313 313 314 314 314 314 314 314 315 317 317 316 315 315 315 314 315 314 313 312 313 310 306 303 302 300 299 298 297 296 295 294 294 294 293 293 293 292 292 291 290 290 290 290 289 289 288 288 287 287 286 286 287 287 288 288 287 287 287 287 287 287 287 288 288 288
312 312 313 313 313 312 312 313 313 314 314 314 314 314 312 312 313 314 314 314 313 313 314 314 313 313 313 314 316 315 313 313 313 312 313 313 311 311 312 310 307 305 303 301 300 298 297 296 295 294 293 293 292 292 292 292 292 292 291 291 290 289 289 288 288 287 287 286 286 285 285 285 286 286 286 286 286 286 287 287 287 287 288 288 288 288
312 312 312 313 313 313 313 313 314 314 314 314 316 315 312 312 315 315 314 314 313 312 313 313 313 313 313 315 315 313 312 313 312 311 314 314 308 306 307 306 302 300 300 299 298 296 295 294 293 292 292 291 291 290 290 290 291 291 290 290 289 288 287 287 286 285 285 285 284 284 284 284 284 285 286 286 286 287 287 288 288 288 288 288 288 288
312 311 311 312 314 313 313 313 313 313 314 318 319 315 312 313 315 315 314 314 313 312 314 314 313 313 313 315 314 312 311 312 313 313 312 308 304 302 302 302 299 298 297 296 296 294 293 292 292 291 291 290 289 289 289 289 290 290 290 288 287 286 285 284 284 283 284 284 283 283 283 283 284 285 286 286 287 287 287 287 287 288 288 288 287 287
313 312 312 312 313 313 314 314 313 312 317 321 318 313 313 314 314 314 314 314 315 315 315 314 314 313 314 315 313 311 311 313 313 309 303 302 301 299 298 298 297 296 295 294 293 292 291 291 291 290 289 288 288 287 288 288 288 288 288 286 284 283 283 282 282 282 283 283 283 283 283 284 285 286 286 287 287 287 287 287 287 287 287 287 287 287
314 313 313 313 313 313 313 314 313 313 317 319 313 310 313 314 314 314 315 316 318 318 316 315 314 313 314 314 313 312 313 310 306 302 300 300 299 297 295 295 294 294 293 292 292 291 290 289 288 288 287 286 286 286 287 287 287 286 285 283 282 282 281 282 282 282 282 283 283 284 285 286 286 287 287 287 287 287 287 286 286 286 286 286 286 285
314 315 314 314 313 313 314 315 315 315 316 315 312 310 312 314 314 314 316 318 317 317 316 315 314 314 314 313 313 313 310 305 301 300 299 298 296 295 294 294 293 292 291 291 290 290 289 288 286 285 284 283 284 285 285 285 284 283 282 281 281 281 281 282 283 282 283 283 284 285 286 286 286 286 286 286 286 286 286 286 286 286 285 284 284 283
314 315 315 315 313 314 315 315 315 315 313 314 314 312 311 312 312 313 315 319 317 313 311 312 313 313 313 312 312 311 307 303 300 299 297 296 295 293 293 292 292 291 290 290 289 289 288 286 285 283 281 281 282 283 283 283 282 281 280 280 280 281 281 282 283 283 284 284 285 286 286 286 286 286 285 285 285 285 285 285 285 284 283 282 281 281
313 313 315 315 314 314 316 315 315 314 312 313 314 313 312 313 311 309 312 317 317 312 310 312 313 310 310 311 311 307 304 302 299 297 296 294 293 292 291 291 290 289 288 288 287 287 286 285 283 281 279 279 280 281 282 282 281 280 280 280 280 280 281 282 283 283 284 285 285 285 285 285 284 284 284 284 284 284 283 283 282 282 281 280 279 280
311 311 314 314 314 314 315 315 314 312 311 310 310 309 310 311 309 307 310 313 313 310 309 311 312 309 307 309 309 306 303 300 298 296 295 293 292 292 291 289 288 287 286 286 285 285 285 283 281 279 278 277 278 279 280 280 280 280 279 278 279 280 281 282 282 283 284 284 284 283 282 283 282 282 282 283 282 282 281 281 279 279 278 278 278 279
309 309 311 313 315 315 315 314 313 311 310 309 309 307 307 308 306 305 307 309 308 305 305 306 308 306 305 306 307 304 301 298 296 295 294 293 292 290 289 288 287 285 285 284 283 283 282 281 280 278 277 276 277 278 278 278 278 278 277 278 279 280 280 281 282 282 281 281 280 280 279 280 280 281 281 281 281 281 280 278 277 277 277 277 277 278
310 309 311 312 313 313 313 313 311 308 306 305 306 306 306 308 307 304 302 302 302 301 301 302 303 304 304 304 304 303 299 297 296 295 293 292 290 289 288 287 285 284 283 282 281 281 280 280 279 277 276 275 275 276 277 276 276 276 277 278 278 279 279 279 279 279 279 279 278 278 278 278 278 279 279 279 279 278 278 277 277 277 277 277 276 276
308 309 311 312 312 312 312 310 307 306 306 306 305 306 306 307 308 305 300 298 299 300 300 301 301 301 303 303 302 301 298 296 295 294 292 291 289 288 286 285 283 282 281 279 279 279 279 278 277 276 275 274 274 275 275 274 274 275 276 277 277 277 278 278 279 279 278 278 277 276 276 277 277 277 277 277 277 277 277 277 277 277 277 277 276 275
306 309 310 311 311 312 311 309 307 308 310 309 308 309 308 306 305 303 301 300 301 301 301 302 300 299 300 301 300 300 298 296 294 293 292 290 288 287 285 283 281 280 278 277 277 277 276 276 275 274 273 273 273 274 273 273 273 275 275 275 276 277 278 279 279 278 276 276 275 275 275 276 276 276 275 275 275 276 277 278 277 276 276 277 276 275
306 309 309 309 311 311 310 309 309 310 311 309 307 306 306 304 303 304 304 303 302 300 300 301 301 299 299 299 298 298 298 296 294 293 292 289 287 285 283 281 280 278 276 276 275 274 274 274 274 273 273 273 273 273 273 272 273 273 273 274 276 278 279 279 278 276 275 274 275 275 275 275 275 274 273 273 273 273 273 275 276 276 276 276 275 275
Wind_Speed
4 6 7 9 10 12 13 13 8 1 3 9 10 10 7 6 6 5 6 3 2 5 9 13 13 13 13 13 11 8 9 9 9 9 9 8 8 8 9 8 9 10 7 6 8 8 9 10 11 12 13 14 15 16 17 18 20 20 19 19 18 18 18 18 17 16 17 16 16 16 16 17 17 17 17 17 18 18 19 20 21 21 19 19 21 23
3 7 10 12 11 10 12 10 4 0 3 6 7 8 8 7 4 4 5 4 2 3 7 9 11 14 13 12 12 10 10 10 10 11 12 12 11 9 10 10 10 8 4 5 6 8 9 10 11 13 14 15 15 16 18 19 20 20 19 19 19 17 18 19 18 17 17 16 15 14 14 15 15 16 16 17 17 17 18 19 20 22 23 22 22 22
6 9 11 11 5 3 4 4 3 4 4 5 5 6 7 5 4 4 4 5 4 3 3 3 6 12 13 13 13 13 13 12 11 12 12 12 11 10 10 9 8 8 6 6 7 8 9 11 12 13 14 16 15 15 16 17 17 18 18 18 18 17 17 18 19 18 16 15 14 12 11 11 11 12 14 16 16 16 18 19 18 16 17 19 20 21
7 7 7 6 7 6 3 4 7 6 5 6 5 6 5 5 5 3 5 6 4 4 2 3 6 9 11 12 13 14 13 10 8 8 8 7 8 8 7 4 4 7 7 6 7 7 9 11 11 12 13 14 15 14 15 16 16 16 17 18 17 17 17 17 18 19 15 13 12 12 10 9 9 10 11 13 14 16 18 20 21 20 19 18 18 19
6 0 1 3 7 9 7 7 9 7 6 7 6 7 4 6 5 1 5 7 3 4 3 4 6 8 10 12 13 10 6 7 6 6 7 7 8 7 5 5 5 7 7 6 7 7 8 10 10 11 12 13 15 16 16 17 17 16 16 16 16 16 16 15 16 17 15 12 12 12 11 10 11 12 12 12 12 14 15 16 18 20 21 21 20 21
4 1 1 4 6 9 9 9 10 8 7 6 7 8 3 3 5 6 7 6 2 5 5 3 5 6 6 12 13 6 4 7 7 7 10 9 8 7 6 7 7 7 7 7 7 6 6 7 8 8 10 13 15 16 17 18 17 16 14 15 15 14 14 14 15 16 16 14 13 13 13 12 13 13 13 12 11 11 11 12 13 15 17 18 21 22
2 1 1 5 7 7 7 7 9 9 8 6 4 6 3 0 3 7 7 5 3 2 2 3 6 5 3 7 9 6 5 8 7 7 10 8 7 7 6 6 5 5 6 6 6 6 5 6 7 8 10 11 12 13 16 18 17 16 14 14 15 14 13 14 15 16 16 15 14 15 14 14 13 12 10 10 10 9 9 9 10 12 13 14 17 18
4 5 2 5 7 7 7 7 8 10 9 3 1 2 5 4 5 8 7 6 3 1 2 3 5 5 5 4 5 5 5 7 8 9 9 7 7 6 5 4 4 4 4 4 5 6 6 8 9 9 9 8 9 12 15 17 18 17 15 15 15 14 12 13 15 16 17 15 14 15 14 13 13 11 9 7 8 8 8 9 9 10 10 12 13 14
4 6 6 8 8 7 6 2 5 11 8 1 2 1 4 3 5 7 6 5 1 1 4 6 4 4 7 4 4 4 5 9 10 11 10 8 6 5 4 3 3 3 3 4 4 4 5 7 8 7 7 7 9 11 12 14 16 17 16 16 15 13 12 13 15 16 16 15 13 13 13 13 13 11 9 7 7 7 8 9 9 9 9 10 11 13
2 2 3 5 6 5 3 5 2 5 4 3 3 3 5 3 2 4 5 4 2 4 7 6 7 5 6 5 5 4 5 9 10 8 8 7 5 3 2 2 2 2 2 3 4 3 4 5 6 6 7 7 8 10 11 12 14 15 16 15 14 13 11 12 14 14 14 13 12 11 12 12 11 10 8 8 7 8 8 9 9 9 9 9 10 11
2 1 1 0 1 1 4 6 5 3 4 7 7 6 6 4 3 2 3 2 4 7 4 3 3 4 5 5 5 3 2 4 6 5 6 5 4 3 2 1 1 1 2 3 3 4 4 5 5 6 7 7 8 9 10 11 13 15 14 14 14 12 11 12 13 13 12 12 11 11 11 11 10 9 8 7 8 8 8 8 9 9 9 9 9 9
3 3 2 2 1 1 4 5 5 3 4 5 5 6 5 3 3 3 3 3 6 6 1 2 1 3 6 5 2 1 2 2 2 3 6 6 5 4 2 1 1 1 2 3 3 4 5 5 6 7 8 9 9 9 10 11 12 13 12 13 14 13 12 13 12 11 11 11 11 10 10 10 9 9 9 8 8 8 8 8 8 8 9 9 9 8
4 3 2 2 1 3 4 5 4 1 3 3 5 7 6 4 4 5 5 5 7 3 2 1 0 3 7 8 7 5 3 3 2 1 4 6 5 4 3 2 2 2 2 3 4 5 5 6 7 8 9 9 9 9 10 12 13 13 13 13 14 13 12 12 11 10 10 9 9 9 8 8 8 8 8 8 8 8 7 7 7 7 7 8 8 8
3 1 3 3 2 4 6 5 5 4 6 7 8 8 7 6 5 6 6 5 6 1 2 1 1 3 6 7 9 9 4 4 4 2 3 4 3 3 2 2 2 2 2 3 4 5 5 6 7 8 9 8 9 10 11 14 15 16 13 11 13 14 12 12 11 10 10 8 8 8 7 7 7 7 7 7 7 7 6 6 6 6 7 7 8 8
6 3 4 5 3 5 7 3 1 4 8 7 4 4 6 6 5 5 5 5 4 2 2 2 2 5 4 1 2 2 2 3 4 4 3 3 2 2 1 1 2 3 3 3 4 5 5 6 7 8 8 8 9 9 11 13 15 14 13 11 13 14 13 12 12 11 10 8 8 8 8 8 7 7 6 5 5 5 5 5 5 6 6 7 7 6
7 3 1 1 0 3 5 0 2 2 6 3 1 2 5 4 1 2 0 1 1 1 2 4 3 5 3 2 3 4 4 2 3 4 2 2 2 1 1 3 4 4 4 4 4 5 6 6 7 7 7 8 9 11 12 13 14 14 14 14 14 14 14 13 12 12 11 9 9 8 8 8 7 7 6 5 6 6 8 8 7 6 6 7 7 7
6 2 2 1 0 1 1 1 2 0 3 2 2 3 3 1 2 2 1 2 0 4 3 5 4 4 4 6 5 5 6 6 5 4 5 4 4 3 3 4 5 5 5 4 5 5 5 6 6 6 7 6 8 11 13 14 15 15 15 15 15 14 14 13 13 12 11 9 8 7 6 6 6 6 6 6 7 7 7 7 7 6 6 7 8 9
4 2 2 0 2 3 2 1 2 2 0 2 3 4 2 1 1 1 2 1 2 6 3 4 6 5 4 4 2 5 6 8 8 7 6 6 6 5 5 6 6 6 6 5 6 5 5 6 6 5 6 6 7 10 13 14 15 16 15 14 14 15 14 13 13 11 11 9 8 7 6 5 4 4 4 4 4 4 3 3 3 3 4 6 7 8
4 3 1 2 1 3 1 1 2 1 0 0 2 1 1 2 3 3 3 3 4 6 4 5 7 6 5 5 2 5 8 9 10 9 8 9 8 6 6 7 8 7 6 6 6 5 5 5 6 6 6 7 8 11 13 14 15 15 15 15 15 14 14 13 12 11 10 9 8 7 5 4 4 3 2 2 1 1 0 0 1 2 3 4 5 6
3 3 1 1 1 2 2 2 5 5 3 0 1 1 0 1 3 3 4 4 4 5 5 4 5 4 6 7 7 7 9 10 13 12 10 10 9 8 8 8 8 7 6 6 6 5 5 6 7 7 7 8 9 11 12 14 15 15 15 15 15 14 13 13 12 12 11 9 8 7 6 6 5 4 3 2 2 1 1 1 1 2 3 4 5 5
2 2 2 2 1 2 3 3 5 5 5 4 4 5 4 2 1 1 3 3 3 5 6 5 5 4 3 6 9 10 7 8 11 12 9 8 9 9 9 9 8 7 7 6 6 6 6 7 8 8 8 8 9 10 11 13 15 16 15 15 14 14 14 14 14 13 12 11 11 10 9 8 7 6 6 5 4 3 3 3 3 3 3 3 3 4
2 2 3 4 3 4 2 0 1 0 2 4 5 7 7 5 4 3 4 3 1 3 4 4 5 3 1 2 5 5 2 1 3 6 6 7 8 9 9 10 9 8 8 7 6 6 6 8 8 8 8 8 9 9 10 12 14 15 15 15 15 15 15 15 15 15 14 14 13 12 11 10 10 9 8 8 7 6 5 5 5 5 5 5 5 5
1 2 4 3 3 2 1 2 1 0 0 2 3 4 5 6 6 6 6 4 3 2 0 2 4 3 1 1 2 0 2 3 3 1 4 7 8 8 9 9 8 7 7 7 6 5 6 7 8 8 9 9 8 8 9 11 13 14 15 15 15 16 16 16 16 16 16 15 15 14 13 13 12 11 11 11 10 9 9 9 9 9 9 9 9 8
1 3 4 3 2 1 0 2 1 1 1 3 4 4 5 6 6 5 2 1 3 4 2 3 5 4 1 1 1 1 2 1 1 1 2 5 7 8 8 8 7 6 6 6 5 5 6 7 7 8 8 8 8 8 9 10 11 13 14 14 15 16 17 17 17 17 17 17 17 16 15 15 14 13 13 13 13 12 12 12 13 13 13 12 12 12
2 4 4 4 3 2 3 3 2 3 3 5 6 6 8 6 2 1 1 3 3 6 7 6 7 5 1 1 1 1 1 2 2 2 2 3 6 7 7 7 7 7 7 6 6 6 6 6 6 7 7 7 7 7 8 9 10 12 14 15 16 17 18 18 19 19 19 19 19 18 17 17 16 15 15 15 14 14 14 14 14 14 14 14 13 13
4 4 5 6 6 5 6 6 5 5 4 4 4 5 9 9 6 4 4 5 5 6 8 7 8 6 1 2 2 3 3 4 4 4 4 4 6 7 7 7 7 7 8 8 8 7 6 5 6 6 7 7 7 7 8 9 10 12 15 16 16 18 19 19 20 20 20 20 20 19 18 18 17 16 16 15 14 14 14 14 14 14 14 14 13 14
4 3 6 10 10 9 10 10 8 8 6 7 10 11 12 14 13 9 5 6 8 7 6 8 10 11 6 4 5 5 6 7 6 6 6 5 6 7 7 8 7 7 7 8 7 6 6 5 6 7 7 7 7 7 8 9 10 12 15 16 17 18 19 20 20 20 20 20 19 19 18 17 16 16 15 14 14 14 13 14 14 14 14 14 14 14
3 4 8 12 13 13 14 12 11 11 10 12 15 15 16 15 14 11 8 10 11 8 7 10 12 14 12 7 8 8 8 8 7 8 8 8 8 8 8 8 8 7 7 7 7 7 7 7 6 7 8 7 7 8 9 11 11 13 16 16 17 18 19 19 20 20 19 19 18 18 17 16 15 14 14 13 13 13 13 13 14 14 14 14 14 14
3 7 9 10 12 12 7 4 8 11 10 12 13 13 14 14 14 14 13 15 13 9 11 14 15 16 14 10 10 10 9 8 7 7 6 7 9 9 8 8 8 8 7 7 8 8 8 7 7 8 8 8 8 8 9 10 11 13 16 16 17 17 18 18 19 19 18 18 17 16 15 14 14 14 13 13 13 13 14 14 14 14 14 14 14 14
2 6 9 9 10 12 7 4 6 9 9 10 12 11 11 12 15 15 14 16 16 14 15 17 19 16 11 10 11 7 5 4 3 4 5 8 9 9 8 8 8 8 8 9 9 9 8 8 8 9 9 9 9 9 9 9 10 12 15 15 16 16 16 17 17 18 17 17 16 15 14 14 13 13 13 13 13 13 13 13 14 14 14 14 14 15
2 5 10 8 6 10 8 5 5 7 8 10 10 8 8 10 13 14 13 15 16 16 17 19 18 14 9 8 8 3 5 5 5 5 7 9 8 7 8 9 9 9 10 10 10 9 9 9 9 10 10 9 9 9 10 10 10 13 14 15 15 15 15 15 16 16 16 15 14 13 13 13 13 13 13 13 13 13 14 14 14 14 15 16 16 17
2 2 5 7 6 9 9 8 7 5 3 7 7 6 9 10 11 12 13 15 15 15 17 16 13 12 9 7 6 4 5 5 6 7 7 7 8 9 10 11 11 11 11 11 10 10 9 9 9 10 10 10 9 9 10 10 11 12 13 14 15 14 14 14 15 15 15 14 13 13 13 13 13 13 13 13 13 13 14 14 16 17 17 18 19 20
5 4 4 7 8 10 10 8 6 5 2 7 7 10 13 12 12 13 13 15 15 15 14 12 12 12 6 6 7 5 6 6 6 6 7 7 10 12 12 13 12 11 11 11 10 9 9 9 10 11 11 10 10 10 11 11 12 12 13 14 14 14 14 14 14 14 13 12 12 13 13 13 13 13 13 13 14 14 15 17 18 19 19 20 21 23
6 6 5 6 6 8 5 4 4 5 8 10 9 13 16 17 16 14 13 15 16 15 13 12 13 11 5 7 10 8 7 8 8 9 9 8 9 11 12 12 10 9 9 9 9 9 9 10 11 12 12 11 12 13 13 13 13 14 15 14 13 13 13 13 13 13 12 12 12 13 13 13 13 13 13 14 15 16 17 18 19 19 20 21 23 24
8 7 5 6 5 3 4 6 5 8 12 12 11 12 16 17 16 13 14 17 18 18 19 18 17 14 7 8 10 10 11 11 9 8 8 7 7 9 12 11 8 9 9 9 10 10 11 13 14 13 13 13 14 14 14 15 15 16 15 13 11 11 12 12 11 11 11 11 12 12 12 13 12 13 14 14 16 17 18 19 20 20 21 22 24 24
8 8 5 5 5 2 3 7 7 6 6 7 6 7 10 13 14 13 15 18 18 18 18 17 18 17 13 10 9 7 5 4 2 4 6 5 4 6 10 11 8 8 9 11 12 13 14 15 16 15 15 15 15 15 15 16 16 16 15 12 10 11 12 11 9 9 9 9 11 11 11 12 12 14 15 16 17 18 19 20 20 21 22 23 25 25
6 7 6 6 6 4 4 7 6 5 3 5 6 7 9 11 13 13 13 14 15 15 14 14 16 18 17 13 6 4 4 3 1 5 5 5 4 4 6 8 8 9 10 12 15 16 17 18 18 18 17 16 15 15 17 17 16 15 14 12 10 11 11 9 8 7 8 8 10 11 11 11 13 15 16 17 18 19 19 20 20 22 24 25 27 28
4 5 6 7 6 5 6 7 6 6 9 10 7 7 9 10 10 10 10 9 10 13 16 15 16 17 17 11 5 7 4 2 5 8 7 7 7 4 2 4 9 13 16 19 20 19 19 20 20 20 19 18 17 17 18 18 16 15 13 11 10 10 10 8 7 7 7 8 8 9 10 10 12 15 16 16 17 19 20 21 22 24 26 27 29 30
2 1 3 6 6 6 7 7 7 8 11 10 4 7 9 10 7 6 5 9 13 15 16 15 16 18 17 10 7 7 5 4 8 10 7 8 8 7 6 7 10 15 19 22 23 22 21 22 22 20 19 19 17 17 18 17 16 14 12 10 10 9 8 7 6 6 7 7 7 8 9 10 12 15 16 16 18 20 22 23 24 25 27 28 30 31
4 3 4 6 7 7 8 7 6 7 8 5 7 7 8 10 10 8 6 11 12 11 12 14 16 18 14 9 9 8 8 9 9 5 4 8 7 7 8 8 10 15 18 20 22 24 24 24 22 19 17 16 16 17 17 17 15 14 11 10 10 9 7 6 6 6 7 6 6 7 10 12 13 15 17 18 20 21 22 24 25 26 27 29 30 31
4 5 5 7 8 9 9 8 6 7 5 4 7 7 10 11 9 9 9 6 3 7 10 13 15 14 12 10 10 9 9 6 2 3 7 9 8 8 9 11 14 16 17 20 23 25 24 22 19 17 15 15 16 17 16 15 14 12 11 10 9 8 7 6 6 7 6 5 6 8 12 13 14 16 17 19 21 21 22 24 25 26 27 29 30 31
5 5 6 7 8 8 8 7 6 8 5 6 5 4 9 9 6 7 6 1 2 4 7 8 10 11 11 10 11 9 4 4 6 7 8 8 9 9 10 13 15 16 18 21 23 23 22 20 18 17 16 14 15 16 16 15 13 11 11 10 9 7 7 7 7 6 5 6 8 11 13 14 15 16 17 19 20 21 22 23 24 25 27 27 28 30
7 6 6 7 7 5 5 7 7 8 3 11 10 3 4 5 3 2 2 1 2 1 1 2 4 5 5 8 9 6 5 7 7 8 8 8 9 10 11 13 14 15 17 19 19 20 21 19 16 16 15 13 14 15 15 16 15 13 11 10 8 6 6 7 7 6 6 8 10 11 12 13 15 16 17 19 20 21 22 23 24 26 26 26 27 28
8 8 6 6 7 6 6 8 6 2 3 9 9 5 7 5 1 1 2 1 0 0 0 1 1 0 1 5 7 6 6 7 7 8 9 9 9 10 10 12 13 15 15 15 15 18 19 18 16 15 14 13 13 14 15 15 15 14 12 9 7 6 7 7 7 7 8 9 10 11 12 13 15 16 17 19 19 21 22 23 24 25 25 24 24 26
9 9 5 5 7 7 5 6 3 2 4 4 2 2 6 6 4 2 1 1 1 2 2 1 1 2 2 4 6 5 5 7 8 8 9 10 10 10 10 11 13 13 14 15 16 17 17 18 18 16 14 12 13 14 14 14 14 13 11 8 7 6 6 6 7 8 8 9 9 11 12 14 15 16 17 18 19 21 22 23 24 25 24 23 23 23
2 3 2 2 4 4 3 6 5 3 3 3 1 3 1 2 4 2 1 1 1 2 2 1 2 3 4 7 8 5 5 8 10 9 9 10 10 10 11 11 12 13 15 16 17 17 17 18 18 17 15 13 12 13 13 12 12 12 10 7 6 5 5 6 7 7 8 9 10 11 13 14 15 16 17 18 20 21 22 22 22 23 23 22 22 21
1 2 2 3 5 5 7 11 10 5 2 2 2 1 1 1 1 1 1 0 1 1 1 1 2 3 5 8 9 7 7 10 11 10 10 10 10 10 10 11 11 12 13 15 16 18 20 19 17 15 15 13 11 12 13 12 11 10 9 7 5 4 4 5 6 6 7 9 9 10 12 14 15 17 18 19 21 21 21 21 20 22 23 22 22 23
2 3 4 4 6 6 6 6 4 1 2 2 1 1 1 2 3 2 2 1 1 1 1 1 2 4 6 7 8 9 9 10 11 11 10 9 9 9 9 10 12 12 13 15 17 19 20 19 16 15 14 13 12 13 14 12 9 9 7 6 5 4 4 5 5 6 6 8 9 10 12 13 15 17 18 19 21 21 21 21 21 23 25 23 21 24
1 3 4 4 5 6 5 2 2 2 1 2 3 4 5 4 4 3 1 1 1 2 2 2 1 2 4 6 8 10 10 9 10 11 11 9 9 9 10 12 13 14 15 17 18 17 18 19 18 16 15 13 13 14 14 11 8 7 6 5 5 5 5 5 5 6 7 7 8 10 12 13 15 17 18 19 21 21 22 23 23 25 27 26 21 20
2 4 4 4 5 6 5 4 5 2 2 2 4 6 7 4 3 3 2 2 3 3 4 4 2 1 1 4 8 11 10 8 8 10 10 9 9 11 13 15 15 14 16 17 17 17 17 18 18 18 16 14 14 15 13 10 8 6 4 4 5 4 3 4 5 5 6 7 8 10 12 13 15 16 17 18 20 24 26 27 26 25 26 27 25 21
5 5 5 5 6 4 1 4 6 4 3 0 2 1 3 2 4 4 5 5 5 4 5 5 4 3 3 4 7 11 9 8 11 11 8 7 9 13 15 16 16 15 17 19 19 18 17 17 18 18 16 15 15 15 13 10 8 6 4 4 4 2 2 3 4 5 5 7 8 9 11 13 13 14 16 17 19 22 25 29 31 29 26 25 26 26
Wind_Direction
186 188 196 212 207 204 208 212 217 235 225 205 198 213 220 214 209 159 105 105 196 220 220 226 236 245 249 245 239 221 196 208 232 241 248 244 238 234 226 225 222 226 222 174 172 187 190 190 189 192 193 191 195 200 200 202 205 206 205 204 205 206 202 201 202 203 204 206 209 212 217 222 225 227 226 229 233 233 235 236 236 237 240 244 244 243
196 209 206 210 211 205 205 209 210 182 227 219 209 210 219 222 200 115 104 120 136 237 230 226 242 252 253 253 250 241 228 224 224 231 242 243 240 237 232 230 228 223 186 154 184 202 197 188 190 198 199 194 195 199 200 202 206 207 206 205 206 202 200 202 202 202 204 206 206 208 214 220 224 227 228 231 233 234 237 241 243 243 243 244 244 242
194 220 213 197 176 144 167 184 212 232 233 232 224 218 223 211 158 108 115 128 143 223 236 217 250 259 255 255 252 242 240 238 230 229 233 238 238 235 233 231 226 216 199 197 202 199 191 183 189 201 205 203 200 197 200 203 203 202 203 205 205 201 200 202 202 201 203 205 205 207 212 217 222 227 231 234 236 239 239 239 241 243 242 243 245 246
193 221 214 162 130 136 147 180 211 231 236 231 225 226 219 172 170 199 162 143 160 221 288 318 282 270 259 255 250 239 237 236 227 222 223 231 236 237 239 246 233 217 217 218 206 200 194 181 184 197 203 207 204 197 197 199 198 199 202 203 201 201 200 200 203 203 201 201 202 207 215 219 225 231 231 233 239 242 243 242 240 238 239 242 244 249
190 218 301 138 155 184 185 185 205 218 224 226 226 233 222 167 173 41 126 144 169 214 252 298 285 272 247 239 242 229 218 227 217 211 222 226 232 240 253 262 247 232 235 235 224 218 202 188 188 194 198 203 205 204 202 200 199 198 199 199 197 198 199 199 202 200 197 196 197 203 212 220 230 235 230 229 236 239 242 247 246 242 243 245 244 245
197 43 268 156 162 196 193 190 202 207 219 222 219 229 249 179 160 103 126 156 208 217 201 224 259 270 229 221 230 203 169 218 209 213 229 220 210 218 232 237 230 226 233 237 236 230 207 194 191 189 194 203 208 211 212 210 206 202 197 194 193 192 195 197 197 196 194 195 197 198 203 211 220 228 228 226 232 236 238 244 247 245 245 246 244 243
148 94 200 160 159 181 194 210 202 200 224 224 215 220 210 207 154 138 158 186 234 230 151 194 242 262 217 208 213 189 191 216 198 207 225 212 198 202 213 222 216 217 223 226 230 227 212 204 202 200 197 201 207 211 214 214 210 205 196 189 189 189 190 192 191 192 192 194 198 199 202 210 216 223 226 226 230 235 239 243 244 243 241 242 244 245
123 142 161 159 166 173 193 219 192 192 224 223 13 235 180 185 192 167 180 212 240 43 116 199 240 265 261 221 162 159 211 226 211 212 212 203 200 198 205 215 218 230 231 232 230 220 212 207 204 198 185 182 192 201 208 210 206 200 194 192 191 185 183 187 187 187 189 191 195 197 202 212 219 223 225 226 229 232 238 242 242 243 242 241 243 245
102 157 166 158 173 189 198 237 175 190 216 227 23 306 158 172 197 183 199 222 237 338 221 197 189 247 259 232 144 157 231 238 228 214 197 192 193 189 202 212 229 243 235 240 237 214 198 193 188 177 163 167 181 192 198 200 199 193 190 192 188 178 176 184 186 185 187 188 189 193 200 209 216 222 225 228 231 233 238 242 243 244 245 245 245 243
44 164 179 167 182 189 135 32 13 206 205 153 145 103 93 105 150 177 216 220 186 247 244 192 179 234 266 241 197 177 225 239 234 208 178 176 174 171 195 204 231 234 214 225 220 200 177 167 165 150 141 149 166 176 176 178 182 179 177 177 173 168 167 175 181 181 182 184 184 191 198 205 211 214 221 227 230 232 236 242 245 244 248 251 249 248
54 78 326 184 183 147 98 64 19 7 115 142 153 119 103 121 129 167 220 225 220 235 239 152 168 244 273 251 217 189 232 245 227 189 160 161 161 158 160 153 211 217 184 192 184 170 149 132 138 140 134 132 143 154 154 156 163 163 161 158 154 155 157 162 168 169 174 181 184 192 199 204 208 210 217 225 232 237 240 245 249 249 252 253 253 254
95 118 167 72 47 177 119 91 43 30 143 155 163 145 135 139 149 194 196 199 234 235 190 74 30 243 243 241 206 96 8 326 257 209 175 169 158 144 132 121 146 156 162 169 158 147 139 131 135 135 126 125 130 134 135 139 145 146 145 148 150 153 159 163 163 164 172 180 185 191 197 202 207 212 219 226 235 240 245 250 255 256 254 254 257 259
115 114 128 76 359 227 175 127 85 73 193 202 183 168 178 182 178 210 204 199 230 231 108 96 319 238 245 247 246 267 271 205 234 257 158 154 143 127 111 91 100 119 140 146 144 140 137 134 134 130 123 123 123 123 128 134 136 136 137 144 152 155 160 164 161 163 173 178 184 189 194 200 206 213 220 228 236 241 245 250 252 253 252 254 257 259
157 128 152 152 174 221 212 176 145 170 194 198 191 187 198 192 185 206 204 207 225 208 93 185 211 250 263 257 250 262 255 175 152 94 78 96 101 85 74 60 83 115 123 126 132 130 129 127 124 124 121 118 116 116 123 131 135 135 133 136 147 151 155 160 158 162 171 175 180 183 188 193 200 210 218 226 235 240 245 248 249 249 252 256 258 261
186 196 178 169 152 182 202 209 148 170 183 195 204 209 212 208 210 210 206 212 203 120 114 192 207 230 240 146 180 221 59 103 120 102 67 64 76 42 49 106 123 128 125 119 120 114 110 113 113 113 113 110 112 115 120 128 133 132 128 131 142 148 151 155 158 161 165 173 181 186 192 193 197 204 207 215 226 234 239 245 253 258 260 263 265 269
196 217 131 113 9 175 178 259 357 151 174 188 343 242 227 234 221 183 216 193 151 63 169 187 237 246 253 284 204 161 135 151 139 124 139 159 148 145 159 154 147 141 134 124 118 110 100 98 99 100 103 104 110 119 125 130 132 133 133 134 140 146 150 153 157 161 165 174 183 188 197 201 206 211 209 213 226 237 244 246 250 254 258 262 263 265
192 202 55 67 93 94 67 10 349 317 176 164 172 200 217 359 68 128 162 98 69 273 208 170 235 256 267 271 230 163 161 173 168 165 172 170 163 168 169 160 153 144 140 132 117 110 102 94 92 91 95 98 107 122 129 131 133 135 136 138 142 146 149 152 156 160 163 167 172 178 187 196 207 215 214 217 228 241 251 254 255 255 260 263 264 264
180 142 40 40 118 83 18 7 34 4 46 136 180 180 142 35 28 162 232 172 192 248 224 169 222 239 240 248 158 146 180 179 177 185 175 163 171 179 172 164 158 149 142 131 115 111 106 98 93 88 89 93 107 124 132 136 139 139 137 139 142 144 146 148 149 151 153 154 158 162 170 180 187 195 204 213 225 241 257 271 275 271 273 275 276 278
174 160 42 11 85 98 112 200 157 153 121 355 250 207 134 214 214 190 218 223 210 235 244 205 215 234 233 225 169 170 188 184 183 190 185 175 173 178 175 166 157 148 140 131 126 125 118 116 114 107 104 106 115 126 131 135 138 139 138 139 141 141 141 142 141 141 143 147 150 150 151 156 153 153 165 178 187 187 183 296 313 294 291 290 290 291
157 207 199 61 27 104 124 213 195 179 167 189 283 244 99 264 230 200 211 231 233 237 249 223 205 222 224 220 228 212 192 190 191 192 194 186 177 177 173 163 155 150 149 147 147 145 134 130 125 118 119 118 121 125 125 127 130 131 131 132 133 133 134 137 138 138 139 140 140 139 137 135 131 135 136 124 123 119 98 56 6 341 326 315 306 304
110 236 188 108 38 161 174 212 206 188 175 181 193 185 185 202 228 259 236 231 245 239 244 245 237 238 202 201 224 225 208 196 193 191 190 179 171 170 164 158 156 153 158 156 150 148 141 132 125 120 120 119 121 121 119 123 126 126 127 126 127 129 130 132 133 133 134 131 130 128 125 124 120 117 115 106 102 93 75 56 42 28 9 355 342 338
137 182 157 141 174 190 186 26 332 245 163 192 201 191 196 189 165 210 220 191 225 245 247 262 261 258 112 150 229 224 185 105 182 187 174 157 158 160 157 159 160 158 162 157 148 146 139 133 130 126 123 120 118 113 111 117 120 122 123 124 127 128 127 129 128 127 125 122 120 117 112 110 106 103 100 96 91 83 74 66 60 56 52 45 34 23
71 118 119 130 162 186 123 62 44 341 222 255 246 218 212 200 192 214 218 184 187 215 317 312 277 267 94 49 313 328 78 56 31 35 151 150 154 157 154 152 149 146 144 139 139 138 131 131 129 124 121 116 110 106 107 113 117 121 122 123 125 126 124 126 124 121 120 117 112 108 104 100 96 93 90 87 83 80 75 70 66 64 61 57 51 44
36 123 125 115 97 48 104 120 107 138 233 250 240 224 219 210 202 215 239 225 191 181 177 232 251 252 175 66 350 357 27 47 11 321 176 155 156 157 150 141 135 129 126 129 134 128 125 130 129 124 119 112 106 104 103 107 113 119 120 120 121 122 121 121 120 117 115 113 108 104 101 96 92 90 88 85 83 81 77 72 69 66 62 58 55 51
176 165 152 141 144 163 193 194 195 199 211 224 222 213 215 218 185 93 292 271 227 193 196 220 250 251 210 83 182 181 203 236 228 220 212 177 163 157 146 142 142 136 138 145 144 140 140 139 131 123 117 112 108 105 105 108 112 117 119 118 118 119 119 118 117 115 112 108 106 103 99 96 93 91 88 86 83 79 74 69 64 59 55 51 48 44
170 183 164 165 180 185 195 206 202 189 187 209 219 209 208 211 199 186 219 240 228 202 195 216 249 252 207 110 204 186 173 211 205 180 197 207 176 161 151 151 151 149 156 160 154 148 145 135 123 117 113 113 110 108 113 112 110 116 119 118 117 117 116 115 114 112 110 107 104 101 98 97 93 89 86 81 76 72 67 61 55 49 45 40 36 32
142 191 193 197 203 204 211 218 200 170 161 187 202 205 205 204 202 204 218 223 222 222 212 217 235 248 242 184 195 205 192 201 200 178 185 196 176 163 157 157 156 156 159 156 149 143 139 133 128 124 119 115 112 110 116 114 110 114 116 116 117 117 115 113 112 110 108 105 102 99 96 93 89 85 79 74 70 64 58 53 47 42 37 31 27 24
129 193 209 212 220 222 222 220 195 174 177 194 202 206 206 203 199 201 216 224 223 229 236 227 226 241 245 208 191 206 202 201 201 189 190 189 177 167 157 154 157 155 147 146 149 151 149 143 136 129 122 117 118 114 115 116 115 116 116 115 116 116 113 111 110 108 105 103 100 95 91 89 85 80 74 68 64 56 50 45 39 33 29 24 20 16
171 196 205 215 233 236 223 184 178 186 197 205 207 207 204 199 194 198 215 227 225 224 238 238 229 233 241 228 212 207 196 198 201 187 178 174 170 164 156 155 161 159 153 159 164 162 156 148 141 137 129 124 124 117 113 113 113 116 116 115 115 113 111 110 108 105 102 99 95 90 87 84 79 73 66 59 53 46 39 34 29 24 20 16 13 10
211 198 199 207 235 240 215 144 174 198 203 212 219 212 195 187 192 200 215 226 227 228 236 244 244 243 243 234 227 215 173 163 151 124 144 169 173 166 160 163 169 170 172 174 171 164 157 148 141 138 133 131 130 123 117 113 112 118 116 113 114 111 108 108 105 102 99 93 89 86 83 78 72 65 58 49 43 37 31 26 22 17 14 12 9 7
236 197 192 190 233 246 221 169 185 204 209 218 222 205 176 178 194 206 218 226 229 234 240 248 255 258 253 226 216 184 100 109 125 150 177 186 177 161 162 174 178 179 182 178 168 160 151 144 142 140 137 136 132 123 119 117 118 121 117 113 113 110 107 107 102 98 95 90 86 82 77 71 64 58 51 44 38 33 27 22 17 13 11 9 5 3
189 191 187 182 217 241 225 209 199 182 216 242 228 190 177 183 194 202 213 220 219 225 238 246 250 254 249 215 190 149 127 149 169 182 192 191 178 173 180 188 187 184 181 174 164 157 152 148 146 144 139 135 128 120 120 123 122 119 117 115 113 110 108 105 99 95 91 87 83 78 72 66 59 54 49 43 36 30 24 18 13 10 7 5 2 359
180 184 184 177 207 231 223 215 192 147 204 251 227 200 194 197 206 209 216 222 216 215 228 234 237 246 237 185 192 188 169 178 188 190 193 192 188 188 190 192 189 182 176 169 159 152 149 147 142 138 134 130 125 124 127 129 125 120 120 119 115 112 110 104 98 93 87 83 79 73 67 62 56 51 45 39 32 25 19 15 10 6 3 0 358 354
188 201 198 178 210 228 192 136 139 188 225 237 224 206 202 205 209 209 216 221 215 215 226 233 240 244 211 181 201 199 186 196 202 202 203 194 190 193 193 192 184 172 163 155 148 145 144 142 135 129 129 129 131 134 134 132 128 126 125 122 120 118 112 104 97 92 84 77 74 69 64 59 52 45 38 32 25 19 14 10 6 3 359 356 354 351
183 200 207 195 213 220 127 126 177 223 230 233 232 217 210 212 210 208 221 223 214 213 223 234 243 240 217 198 202 200 206 208 202 206 208 196 190 191 190 186 170 158 156 149 148 152 150 144 137 130 129 133 136 137 134 132 130 130 130 131 132 126 115 105 97 92 83 73 69 66 60 53 47 39 31 24 18 14 10 6 3 0 357 353 351 349
182 189 199 206 202 171 146 178 205 240 232 218 225 213 205 212 212 216 232 231 219 214 218 228 239 239 232 222 208 200 207 193 182 219 207 192 203 196 192 190 170 153 156 154 153 154 148 142 138 135 135 136 137 137 136 135 135 137 140 144 139 125 113 105 98 91 84 72 65 61 55 48 38 30 23 17 14 11 8 5 2 359 356 351 349 348
192 189 192 207 202 191 204 204 219 286 275 200 201 197 190 196 199 207 233 241 227 217 217 223 231 234 235 230 199 123 88 79 269 244 202 178 197 209 204 195 162 137 135 137 138 138 137 137 137 137 139 137 137 142 144 143 143 144 147 144 130 117 110 107 101 91 81 70 62 55 49 41 30 22 18 15 12 10 7 5 1 358 355 351 348 348
207 204 199 207 204 198 222 226 221 244 243 226 205 175 177 192 195 197 225 252 237 215 212 218 226 232 235 226 155 113 111 145 242 241 208 175 177 172 141 128 127 128 129 132 132 129 131 137 139 140 141 139 139 146 149 148 147 145 145 140 129 119 112 105 97 86 75 65 57 49 40 32 22 18 17 15 12 9 6 3 0 357 354 351 348 346
189 251 217 218 215 198 216 234 218 224 242 237 180 135 164 181 163 151 204 251 245 224 210 210 222 232 233 213 151 136 151 197 236 238 204 165 161 152 132 113 112 122 130 137 138 133 132 137 138 138 139 139 141 149 150 148 147 145 143 141 133 121 110 101 94 87 79 67 55 41 30 21 16 15 17 14 11 8 4 1 358 355 351 349 346 343
182 203 200 215 224 210 214 232 231 240 253 217 150 145 164 154 133 138 205 248 246 222 202 206 220 231 228 196 159 169 195 215 237 239 144 128 127 126 128 124 121 124 127 132 136 134 135 137 136 134 135 138 144 149 148 147 148 145 142 139 130 118 110 108 102 92 84 72 54 31 21 17 15 16 16 12 8 5 2 358 353 350 348 345 342 340
182 192 195 209 219 217 219 229 244 256 244 166 146 153 143 133 143 183 213 248 235 167 185 207 218 223 217 188 176 196 212 214 202 107 110 116 116 115 115 114 117 120 122 128 133 135 134 134 134 133 134 140 148 149 149 147 144 141 137 131 122 113 109 104 94 86 80 65 36 19 19 20 17 16 13 8 3 360 357 354 349 346 344 342 339 337
177 185 199 205 208 219 224 224 248 259 227 135 114 145 147 148 187 211 208 301 39 149 191 215 216 216 213 195 191 201 188 105 97 112 120 120 120 123 122 119 116 115 121 129 134 136 133 131 132 134 135 142 149 150 150 147 139 134 131 122 111 105 101 89 77 72 63 40 23 18 21 21 16 12 8 3 359 355 351 350 346 343 342 340 337 335
173 175 193 198 196 211 222 210 232 262 209 125 114 129 196 190 208 197 159 46 13 120 219 248 226 222 213 194 191 176 116 108 120 124 123 123 124 125 127 128 125 123 127 131 134 138 136 130 127 130 134 142 146 147 147 144 137 130 122 110 103 98 87 74 64 57 43 30 23 20 21 18 11 7 4 359 355 351 347 345 342 340 340 338 335 332
173 176 186 195 192 192 203 208 212 237 163 145 140 172 205 193 119 82 150 144 132 165 165 244 234 280 194 179 167 138 121 132 139 132 129 130 130 129 127 126 125 127 128 127 130 138 138 131 127 130 135 140 141 141 141 140 134 126 112 100 98 93 76 64 57 48 37 29 24 19 16 12 7 3 0 356 350 347 345 343 340 340 339 336 333 331
187 188 187 193 198 197 207 219 205 138 171 190 129 148 184 160 104 86 144 114 121 176 180 196 161 122 128 141 132 127 138 142 139 138 137 132 130 130 128 125 123 124 126 127 132 138 139 136 135 134 132 135 138 135 134 136 131 120 107 98 99 93 73 57 51 45 36 29 24 16 11 7 3 359 355 352 349 346 343 341 340 338 336 334 331 327
201 197 168 157 188 205 244 245 228 186 200 228 32 48 88 113 95 110 173 86 106 147 160 171 139 139 151 148 141 141 147 142 138 135 134 134 135 132 128 125 122 122 127 133 137 140 140 139 138 136 131 133 136 133 129 130 126 115 110 113 111 95 74 58 50 43 34 28 21 13 7 2 359 355 352 349 348 346 342 340 338 334 332 330 327 323
268 195 184 173 173 187 225 236 229 212 187 200 178 103 15 320 115 153 214 230 80 107 163 162 123 136 158 164 159 152 146 143 140 138 139 140 139 137 135 133 131 129 132 137 143 146 145 141 138 137 134 132 133 134 129 125 123 122 126 132 122 97 79 67 57 45 35 29 21 9 2 359 355 351 350 348 346 343 340 338 334 328 325 324 322 320
200 167 176 193 192 198 221 232 230 188 98 118 181 195 227 230 206 184 208 255 52 74 113 127 137 155 171 176 163 146 144 149 146 144 148 146 139 140 140 136 134 132 134 142 148 150 149 146 142 140 138 136 138 137 130 124 129 139 141 134 123 106 92 79 66 52 37 26 17 6 359 356 354 350 348 346 343 340 336 333 330 325 322 320 317 315
108 159 175 183 198 230 245 200 113 78 111 151 191 222 234 232 204 169 140 108 115 122 131 146 183 188 174 170 157 144 147 157 155 147 147 148 146 146 143 138 138 139 142 148 152 152 151 151 149 145 142 143 143 138 133 134 147 153 144 127 119 111 97 82 63 46 32 20 11 2 356 355 354 350 346 344 341 338 334 331 329 326 322 320 318 314
178 195 188 170 193 233 243 171 142 177 242 198 190 221 231 217 161 139 137 168 188 188 166 152 144 46 95 150 158 156 153 155 155 149 145 148 150 147 145 143 139 140 147 151 151 152 153 152 151 149 144 144 145 139 137 149 162 158 142 128 121 109 88 69 49 36 26 15 5 358 352 352 352 349 346 344 341 337 334 331 330 327 323 322 322 318
210 211 201 203 217 235 219 143 163 199 242 223 78 286 260 158 150 187 209 203 201 196 177 158 150 157 159 156 166 171 167 156 154 151 137 130 138 140 143 147 145 145 152 155 152 151 151 151 152 150 146 146 147 143 145 162 173 165 150 140 128 111 74 55 45 37 22 8 0 356 352 350 348 346 344 342 338 335 332 330 329 329 326 324 323 321